User: anonymous   Login
Location: Cadenet
(43.7345°N, 5.3750°E)
Time: 21:52:48
(UTC+00:00)
Language:

SL-16 R/B - Orbit

View from above orbital plane
View from above orbital plane
View from above satellite
View from above satellite

Ground track
Ground track

The orbit data is extracted from the following two-line orbital elements,

1 28353U 04021B   20158.59735167 -.00000323 +00000-0 -14406-3 0  9995
2 28353 070.9996 322.0948 0005994 327.5248 032.5505 14.14231383825600
Epoch (UTC): 06 June 2020 14:20:11
Eccentricity: 0.0005994
inclination: 70.9996°
perigee height: 840 km
apogee height: 849 km
right ascension of ascending node: 322.0948°
argument of perigee: 327.5248°
revolutions per day: 14.14231383
mean anomaly at epoch: 32.5505°
orbit number at epoch: 82560

The dashed part of the orbit path shows where the satellite is in the earth's shadow,  

DLR